Location: Bieujac
(44.5398°N, 0.1549°W)
Time: 23:18:08
(UTC+00:00)

SJ 16-02 - Pass Details

Date: 17 November 2019
Orbit: 607 x 616 km, 75.0° (Epoch: 08 December)

Event Time Altitude Azimuth Distance (km) Brightness Sun altitude
Exits shadow 03:37:50 18° 84° (E) 1,495 3.9 -35.7°
Drops below altitude 10° 03:40:12 10° 52° (NE) 1,965 4.5 -35.3°
Sets 03:42:57 0° 35° (NE) 2,874 5.3 -34.8°
